Theta_e
284 284 284 283 282 281 280 279 278 279 280 280 280 279 280 278 279 279 278 278 278 279 280 281 282 284 285 285 286 289 292 298 309 311 314 318 318 319 321 320 324 327 326
284 284 284 284 282 281 280 280 279 278 279 280 280 280 280 277 277 277 277 277 277 277 278 280 281 282 283 284 284 286 288 292 296 312 304 302 304 309 311 315 312 314 314
285 285 285 284 283 282 281 279 279 278 278 279 280 280 280 279 277 276 276 276 276 277 277 278 280 280 281 282 283 283 286 288 290 295 293 291 295 296 301 304 305 303 302
286 285 285 285 284 282 281 281 279 278 278 278 278 279 280 279 278 277 276 276 276 276 276 277 279 279 280 281 282 281 282 285 286 287 287 287 287 289 291 293 298 295 295
287 286 285 285 285 283 282 281 280 278 277 278 278 278 279 279 279 277 276 276 276 276 276 276 278 279 279 279 280 281 280 282 283 284 284 284 285 285 287 289 295 294 291
286 285 284 284 284 283 282 281 280 279 277 278 278 278 278 279 278 277 276 276 276 276 276 276 276 277 276 277 278 278 279 279 280 281 281 282 282 283 285 287 288 293 294
285 285 284 283 283 283 282 282 281 279 278 277 278 278 278 278 278 277 276 276 276 277 277 276 276 276 276 275 275 275 276 278 278 278 279 280 281 281 283 286 287 285 284
284 284 283 283 283 282 282 282 282 280 278 277 276 277 278 279 278 277 276 276 276 276 277 276 276 276 276 275 274 274 274 275 276 277 277 278 279 280 282 283 285 284 283
284 283 283 283 282 282 281 281 282 280 278 277 276 276 276 277 279 278 277 276 276 276 276 277 276 275 276 275 274 273 273 273 274 275 276 276 277 278 279 282 282 283 282
283 282 282 282 282 282 282 281 281 281 279 277 276 275 276 276 278 278 277 276 276 276 276 275 276 275 275 275 273 273 272 272 272 274 275 276 276 276 277 278 279 281 282
282 282 282 282 282 281 281 281 280 279 279 277 276 274 274 275 276 277 278 277 277 276 276 275 275 275 274 274 273 272 272 271 271 271 272 272 273 273 274 275 275 276 277
282 281 281 282 280 280 280 279 279 278 278 276 275 274 274 274 275 276 277 277 277 277 276 275 275 274 274 273 272 272 271 270 270 270 270 271 271 271 272 273 274 274 274
282 281 280 281 280 278 277 277 277 276 275 275 274 273 274 274 275 276 276 276 277 276 276 276 274 273 273 272 272 271 270 270 269 269 269 270 270 271 270 272 273 273 273
281 280 279 279 279 278 278 278 277 276 275 274 273 273 274 274 275 275 276 275 274 274 274 274 273 273 272 272 271 271 270 270 269 269 269 270 270 270 270 269 270 271 271
281 280 279 279 278 278 278 278 277 276 275 274 274 273 273 274 275 276 275 274 273 272 272 272 271 271 271 271 271 271 270 270 269 269 269 269 269 269 269 269 269 269 270
280 280 279 279 279 278 278 277 276 276 276 275 274 274 273 274 275 275 273 273 272 271 270 269 269 269 269 269 269 269 270 270 269 268 268 269 269 269 268 268 268 268 269
280 280 280 279 279 279 278 277 276 276 276 275 274 273 274 274 274 273 272 271 270 269 268 267 267 267 267 267 267 267 267 268 269 268 268 268 268 268 267 267 267 267 268
280 279 279 279 279 279 278 278 278 277 275 274 272 272 273 273 273 271 269 269 268 267 266 266 265 265 265 265 265 265 266 267 268 268 267 267 267 267 267 266 266 266 267
280 279 279 278 277 278 277 277 276 276 276 273 272 271 270 271 270 268 267 267 266 265 265 264 264 264 264 263 264 264 265 266 266 267 266 266 266 266 266 265 265 266 266
279 279 278 278 277 277 276 276 275 274 273 272 270 270 269 269 268 267 266 265 265 264 264 263 263 263 263 263 263 263 263 264 265 266 265 265 265 265 265 265 264 264 264
278 277 277 277 276 276 275 274 273 273 272 270 269 269 268 268 267 266 265 264 264 263 263 262 262 262 262 262 262 262 263 264 265 265 265 265 265 264 264 263 263 263 263
278 276 276 276 275 274 273 273 273 272 271 270 269 268 267 267 266 265 264 263 263 262 262 262 261 262 261 261 261 262 263 263 263 263 264 264 263 263 263 263 262 262 262
278 276 275 275 274 273 273 272 272 271 270 269 268 267 267 266 265 264 263 263 262 262 261 261 261 261 261 261 261 262 262 262 262 263 263 263 263 263 262 262 262 262 262
276 275 274 274 273 272 272 271 270 269 269 268 267 266 265 264 264 263 262 262 261 261 260 260 260 260 260 261 262 262 262 262 262 262 262 262 262 262 262 262 262 262 262
275 275 274 273 272 271 270 270 269 268 267 267 266 265 264 263 263 262 261 261 260 260 259 260 260 260 261 261 262 262 262 262 262 262 262 262 262 262 262 262 262 262 262
274 274 273 272 271 270 270 269 268 267 266 265 264 264 263 262 261 261 260 259 259 259 259 260 260 261 261 261 262 262 262 262 262 262 262 262 262 262 262 262 262 262 262
Wind_Speed
10 11 12 13 16 18 19 20 22 21 21 24 24 20 26 27 27 28 26 27 27 27 30 32 32 32 31 28 25 19 18 17 10 21 24 9 2 5 5 5 5 9 18
9 11 10 11 14 19 20 17 21 26 23 23 24 24 22 32 28 28 27 30 31 29 29 31 33 35 35 32 28 26 19 16 14 11 6 12 16 12 15 14 15 14 9
8 9 9 8 10 15 18 22 20 24 26 23 24 26 24 29 31 29 30 30 30 29 31 29 31 35 37 36 38 32 26 20 17 9 9 12 9 19 12 16 15 11 12
6 7 8 6 6 10 14 19 23 21 24 27 25 25 26 25 29 31 32 32 32 32 31 30 33 33 36 38 35 36 31 23 22 19 18 14 16 15 14 13 16 20 20
7 7 9 8 7 9 12 17 21 22 22 23 28 28 26 26 25 27 32 34 30 34 34 34 34 32 30 31 33 36 36 27 22 23 22 21 18 16 17 14 4 17 29
13 12 11 11 11 10 10 13 16 20 22 22 23 27 28 25 23 24 27 33 33 29 33 35 34 35 31 28 29 32 36 34 28 26 26 23 25 19 21 17 13 4 3
14 12 11 10 11 11 11 9 12 16 21 24 24 25 25 25 23 23 24 30 31 30 30 32 32 34 34 30 27 28 31 36 38 32 26 28 28 29 19 18 20 20 12
13 12 10 9 9 10 10 9 8 12 18 21 23 23 25 24 23 23 23 27 28 29 28 28 31 32 33 29 26 28 32 31 34 33 33 31 33 31 28 21 16 15 22
11 9 8 9 10 10 9 9 8 10 14 19 21 22 24 24 22 22 24 22 23 26 29 29 29 31 30 29 29 28 31 35 29 28 29 31 32 36 36 29 29 15 12
12 13 12 10 9 8 9 8 10 10 13 15 19 22 19 22 21 21 23 25 25 21 25 28 29 31 30 30 30 28 28 29 32 35 36 38 39 39 42 39 30 23 11
14 12 11 11 9 9 10 12 12 15 13 13 16 19 22 19 20 19 19 23 19 20 19 25 27 28 30 30 31 31 26 26 29 30 32 35 36 38 37 36 36 31 23
15 11 9 12 9 7 7 9 9 9 10 12 14 17 20 22 17 18 18 19 14 18 18 20 21 23 25 29 30 28 29 32 30 28 28 30 31 32 33 29 27 31 32
17 13 12 15 10 8 10 9 11 11 14 12 13 16 18 20 21 21 20 18 17 18 18 15 17 19 22 26 27 30 36 32 28 28 27 28 28 27 31 30 26 24 28
18 17 15 14 12 10 10 10 10 10 13 13 13 12 14 17 19 20 20 17 14 14 15 16 17 19 22 21 26 28 30 32 30 26 25 24 25 27 29 30 28 28 24
18 16 15 14 12 10 7 6 7 8 8 12 13 13 13 16 16 14 15 17 15 13 13 17 20 22 22 22 22 23 22 24 25 28 26 24 24 25 26 27 26 23 21
20 17 15 16 12 9 9 9 6 6 8 8 9 10 12 10 11 12 12 13 13 11 18 20 21 20 18 19 20 21 22 19 19 21 24 20 20 22 23 24 25 24 21
21 17 15 14 13 10 11 9 11 7 6 7 6 9 9 9 10 10 11 11 13 12 19 19 19 18 16 17 18 19 20 20 14 18 21 21 17 18 21 21 22 22 20
17 16 14 12 11 10 8 8 9 11 12 10 5 8 10 8 10 11 11 11 15 16 15 16 15 16 14 17 19 19 19 19 14 16 19 20 19 18 17 18 19 18 17
17 14 12 10 8 9 8 8 9 8 11 11 3 7 8 8 9 10 12 15 14 14 13 14 14 15 15 16 17 16 16 17 16 16 18 19 19 21 20 18 20 18 17
14 12 11 10 9 9 8 8 8 8 11 9 6 7 6 4 7 9 11 12 12 12 11 11 12 12 12 15 16 16 16 16 17 15 16 18 18 18 19 20 20 17 17
12 13 12 12 10 8 7 7 8 8 9 8 7 6 4 5 6 6 8 9 10 11 11 11 11 8 9 13 15 15 12 16 11 12 14 16 16 18 17 18 20 18 16
13 12 12 13 9 7 7 7 8 8 7 8 7 6 3 4 4 5 5 6 8 9 10 11 9 6 7 11 13 12 9 12 14 12 13 14 14 14 15 19 19 21 21
17 15 13 11 9 8 9 9 7 5 6 7 5 3 1 2 2 3 4 5 7 9 11 10 6 7 8 10 8 8 8 8 9 12 13 12 12 14 16 17 19 21 21
16 14 13 12 9 9 9 8 7 7 6 5 4 3 1 1 2 3 5 6 9 10 11 8 6 6 7 5 4 4 8 7 6 9 9 8 10 13 15 17 18 19 19
14 13 13 12 10 10 9 9 9 8 7 5 4 2 2 2 4 6 7 8 10 12 7 4 5 5 4 3 3 6 6 5 6 7 5 8 10 12 14 16 17 19 19
12 12 11 11 10 10 10 10 9 8 6 4 3 3 4 5 6 7 8 9 12 8 3 5 6 5 3 2 4 6 5 8 6 4 4 7 10 12 14 16 16 17 20
Wind_Direction
85 73 73 70 59 56 50 46 46 43 40 39 37 19 18 28 31 36 24 15 17 15 21 21 8 7 2 354 344 332 313 302 277 260 257 289 282 25 350 273 260 234 243
103 88 83 78 65 58 51 45 43 45 45 43 42 39 25 31 36 36 32 22 20 12 11 18 16 13 11 4 0 351 335 331 314 242 36 29 48 65 72 90 83 99 97
131 105 95 90 79 69 56 49 51 48 48 47 45 43 40 31 34 39 40 34 25 19 16 14 18 19 16 6 12 3 356 2 3 51 55 23 41 35 38 55 58 73 73
164 135 105 94 100 90 69 53 49 51 53 51 48 47 44 35 29 38 38 37 31 27 20 20 22 23 24 16 15 14 6 13 18 50 52 34 32 8 31 32 49 56 54
172 125 109 88 114 113 83 60 53 53 57 56 52 48 45 40 32 29 42 40 32 28 26 24 24 25 30 27 24 22 22 20 21 36 42 39 29 20 4 358 43 81 57
131 121 116 102 103 106 100 75 61 56 58 56 54 49 43 39 36 37 39 43 38 31 27 25 24 24 27 29 30 32 32 28 30 36 36 31 19 16 12 18 22 18 51
123 122 120 113 99 100 92 86 70 61 57 55 53 53 46 41 38 38 38 42 38 32 30 29 27 25 25 29 29 36 39 35 37 37 34 30 21 15 9 26 53 64 61
132 129 125 119 107 98 91 86 95 70 61 55 52 51 51 39 38 38 39 41 37 35 33 34 31 28 26 24 28 34 36 38 35 36 39 37 35 35 40 39 63 69 57
141 143 141 133 116 99 92 88 86 96 73 63 53 47 46 44 37 37 38 33 32 34 37 35 36 32 29 30 32 31 33 35 40 40 41 41 40 41 45 44 33 38 47
155 138 126 123 122 112 96 90 84 117 86 65 53 48 47 43 38 37 35 38 41 33 38 38 34 34 33 33 36 33 31 23 30 44 48 50 50 50 54 49 40 39 36
149 154 146 130 121 121 118 100 108 102 99 74 52 48 47 44 37 34 33 31 34 42 43 43 37 34 36 38 40 39 35 38 37 37 35 35 35 39 43 53 55 51 48
159 154 153 167 145 124 126 108 102 96 82 64 54 49 46 40 35 31 31 30 38 44 47 54 43 40 42 41 42 41 42 44 42 38 36 32 27 24 31 44 57 61 58
164 160 150 151 146 116 107 104 92 84 79 66 53 48 42 41 37 34 33 33 45 55 55 58 50 45 43 46 40 42 44 43 40 39 33 29 29 28 30 42 51 55 53
165 165 158 154 149 132 117 102 96 90 84 74 57 45 41 36 32 26 35 43 47 55 60 63 60 51 48 47 45 44 45 45 44 40 36 33 31 31 29 27 26 27 28
166 162 171 166 158 152 140 116 108 106 95 85 60 43 40 25 20 25 28 38 37 48 52 49 45 41 36 34 35 43 44 45 43 43 37 31 29 28 27 25 26 25 30
161 162 159 170 170 165 155 142 126 112 118 99 66 42 34 24 20 38 32 33 31 44 54 49 42 38 34 27 25 27 28 32 42 41 43 36 31 29 25 24 23 22 21
165 161 162 160 155 158 176 169 163 157 151 130 77 42 35 28 40 44 39 46 43 43 53 47 44 40 32 30 26 25 23 32 45 49 47 43 34 33 29 25 20 18 17
170 170 174 169 171 163 149 154 172 181 174 144 79 43 43 50 56 48 42 25 42 47 48 42 38 36 36 34 30 29 28 35 52 46 44 42 43 39 33 27 20 16 11
170 174 176 174 181 166 155 156 150 151 173 173 94 56 63 66 66 58 34 42 48 46 38 35 33 32 33 30 27 28 32 35 40 39 44 40 35 35 34 24 22 18 13
170 176 177 165 161 159 159 155 144 141 143 149 100 76 60 25 38 41 40 40 39 38 29 27 23 24 28 21 21 22 26 27 37 47 33 31 27 26 28 26 23 12 5
168 172 169 172 172 169 165 159 147 144 138 128 107 101 72 49 68 53 43 37 28 20 16 9 3 12 24 15 12 7 22 30 35 35 25 18 15 16 22 23 16 13 3
172 170 176 174 177 176 170 169 159 145 139 141 133 124 99 65 61 55 44 26 16 8 0 355 354 9 10 2 357 3 16 28 33 21 11 9 13 22 21 13 12 10 5
181 174 177 175 172 173 178 167 163 159 147 142 147 139 62 43 49 49 15 4 352 346 345 343 331 325 336 342 353 0 16 21 12 359 357 5 13 18 12 10 6 4 5
177 184 182 179 183 176 175 176 172 164 162 163 166 160 154 14 351 341 344 339 334 337 338 328 324 334 343 0 8 9 351 349 346 357 6 26 18 16 13 10 8 6 6
186 190 188 183 187 183 177 171 174 176 175 184 187 210 258 304 308 321 327 327 330 335 347 13 355 338 342 350 355 350 349 349 350 2 34 21 19 14 10 8 5 6 6
187 192 191 189 186 188 190 186 180 181 190 205 234 262 287 298 306 313 320 322 331 337 352 2 1 352 347 62 10 356 32 353 358 19 19 9 10 9 6 4 4 5 1